Location: Zagreb
(45.8000°N, 16.0000°E)
Time: 13:39:28
(UTC+02:00)

ISS - Pass Details

Date: 30 September 2021
Orbit: 417 x 423 km, 51.6° (Epoch: 16 October)

Event Time Altitude Azimuth Distance (km) Brightness Sun altitude
Rises 21:01:46 0° 296° (WNW) 2,366 1.4 -25.3°
Reaches altitude 10° 21:03:53 10° 293° (WNW) 1,501 0.1 -25.7°
Enters shadow 21:05:40 28° 283° (WNW) 816 -1.7 -26.0°
